Location: ??
(36.7391°N, 127.5151°E)
Time: 12:46:01
(UTC+00:00)

STARLINK-1368 - Pass Details

Date: 07 June 2020
Orbit: 548 x 551 km, 53.0° (Epoch: 15 July)

Event Time Altitude Azimuth Distance (km) Brightness Sun altitude
Rises 11:38:11 0° 199° (SSW) 2,698 7.0 -9.4°
Reaches altitude 10° 11:40:37 10° 188° (S) 1,809 6.0 -9.8°
Maximum altitude 11:44:09 28° 128° (SE) 1,047 4.5 -10.3°
Drops below altitude 10° 11:47:42 10° 69° (ENE) 1,819 6.0 -10.9°
Sets 11:50:09 0° 58° (ENE) 2,717 7.0 -11.2°
